Location: Saratoga Springs
(43.0831°N, 73.7850°W)
Time: 11:29:52
(UTC-04:00)

Vanguard 3 - Pass Details

Date: 27 April 2024
Orbit: 509 x 3233 km, 33.3° (Epoch: 23 May)

Event Time Altitude Azimuth Distance (km) Brightness Sun altitude
Exits shadow 00:59:22 29° 134° (SE) 4,390 10.4 -32.9°
Drops below altitude 10° 01:09:19 10° 95° (E) 5,116 11.2 -32.8°
Sets 01:13:23 0° 85° (E) 5,765 11.6 -32.7°
